Location: Shepherdstown, WV
(39.4326°N, 77.8042°W)
Time: 20:04:02
(UTC-04:00)

Vanguard 1 - Visible Passes

Search period start: 28 September 2021 00:00
Search period end: 08 October 2021 00:00
Orbit: 652 x 3831 km, 34.3° (Epoch: 28 September)

Date Brightness Start Highest point End Pass type
(mag) Time Alt. Az. Time Alt. Az. Time Alt. Az.
28 Sep 13.1 00:30:29 10° W 00:44:03 45° WSW 00:44:03 45° WSW visible
28 Sep13.803:33:17S03:33:17S02:56:42Wvisible
28 Sep 12.5 20:05:50 10° WSW 20:20:33 71° SSE 20:37:48 22° E visible
28 Sep 12.6 22:27:40 10° W 22:46:56 73° S 22:50:27 67° SSE visible
29 Sep 13.4 00:52:00 10° W 01:03:05 36° W 01:03:05 36° W visible
29 Sep13.903:53:23S03:53:23S03:15:44Wvisible
29 Sep 12.5 20:26:42 10° WSW 20:41:54 74° S 20:56:51 29° E visible
29 Sep 12.6 22:48:53 10° W 23:08:24 69° SSW 23:09:30 69° S visible
30 Sep 13.6 01:13:41 10° W 01:22:08 28° W 01:22:08 28° W visible
30 Sep 12.5 20:47:40 10° W 21:03:19 75° S 21:15:55 36° ESE visible
30 Sep 12.7 23:10:07 10° W 23:28:34 63° SSW 23:28:34 63° SSW visible
01 Oct 13.8 01:35:38 10° W 01:41:13 20° W 01:41:13 20° W visible
01 Oct 12.4 18:48:10 10° WSW 18:59:54 64° SSE 19:20:27 10° E visible
01 Oct 12.6 21:08:41 10° W 21:24:47 75° S 21:35:02 43° ESE visible
01 Oct 12.9 23:31:25 10° W 23:47:40 55° SW 23:47:40 55° SW visible
02 Oct 14.0 01:58:01 10° W 02:00:19 14° W 02:00:19 14° W visible
02 Oct 12.4 19:08:52 10° WSW 19:21:00 69° SSE 19:41:31 11° E visible
02 Oct 12.6 21:29:45 10° W 21:46:14 72° S 21:54:10 50° SE visible
02 Oct 13.1 23:52:50 10° W 00:06:49 45° WSW 00:06:49 45° WSW visible
03 Oct 12.3 19:29:41 10° WSW 19:42:13 73° S 20:00:42 16° E visible
03 Oct 12.6 21:50:51 10° W 22:07:39 68° SSW 22:13:21 56° SE visible
04 Oct 13.3 00:14:24 10° W 00:26:01 36° WSW 00:26:01 36° WSW visible
04 Oct 12.4 19:50:34 10° W 20:03:31 74° S 20:19:56 22° E visible
04 Oct 12.7 22:11:58 10° W 22:29:01 62° SSW 22:32:36 58° S visible
05 Oct 13.5 00:36:15 10° W 00:45:16 27° WSW 00:45:16 27° WSW visible
05 Oct 12.4 20:11:30 10° W 20:24:51 73° S 20:39:12 27° ESE visible
05 Oct 12.8 22:33:11 10° W 22:50:18 56° SSW 22:51:53 55° SSW visible
06 Oct 13.8 00:58:32 10° W 01:04:33 20° WSW 01:04:33 20° WSW visible
06 Oct 12.4 20:32:29 10° W 20:46:13 70° S 20:58:34 33° ESE visible
06 Oct 12.9 22:54:30 10° W 23:11:14 49° SSW 23:11:14 49° SSW visible
07 Oct 14.0 01:21:37 10° W 01:23:54 13° W 01:23:54 13° W visible
07 Oct 12.5 20:53:28 10° W 21:07:33 66° SSW 21:17:58 38° SE visible
